[[{"header":{"parameterUnit":"m.s-1","parameterCategory":1,"la1":30.2991,"la2":30.254,"lo1":-89.0895,"lo2":-89.0444,"dy":0.0017,"dx":0.0017,"nx":28,"ny":28,"refTime":"2025-07-22T03:00:00:Z","depth":0,"parameterNumber":2,"parameterNumberName":"U-component_of_WINDS"},"data":[0,0,0,0,0,0,0,0,0,0,0,0,0,0,0,0,0,0,0,0,0,0,0,0,0,0,0,0,0,0,0,0,0,0,0,0,0,0,0,0,0,0,0,0,0,0,0,0,0,0,0,0,0,0,0,0,0,0,-4.8914,-4.8919,0,-4.9357,-4.9362,-4.9366,-4.951,-4.9508,-4.9507,-4.9505,-4.9935,-4.9948,-4.9961,0,0,0,0,0,0,0,0,0,0,0,0,0,-4.8177,-4.819,-4.8914,-4.8919,-4.8925,-4.9356,-4.9362,-4.9368,-4.9511,-4.9508,-4.9506,-4.9504,-4.9931,-4.9947,-4.9962,0,0,0,0,0,0,0,0,0,0,0,0,0,-4.8545,-4.8194,-4.8913,-4.9049,-4.9066,-4.9355,-4.9362,-4.9369,-4.9511,-4.9508,-4.9505,-4.9503,-4.9926,-4.9945,-4.9965,-5.0144,0,0,-5.0025,-5.0034,0,0,0,0,0,0,0,0,-4.8524,-4.8572,-4.9023,-4.904,-4.9059,-4.9376,-4.926,-4.9628,-4.9512,-4.9341,-4.9505,-4.9501,-4.975,-4.9784,-4.9873,-5.0164,-5.0182,-5.0027,-5.0039,-5.0048,-5.0053,0,0,0,0,0,0,0,-4.8498,-4.8554,-4.9088,-4.903,-4.9052,-4.9082,-4.9132,-4.933,-4.9555,-4.9356,-4.9367,-4.9419,-4.9759,-4.9853,-4.9884,-5.0189,-5.0026,-5.0044,-5.0056,-5.0064,-5.0652,-5.0656,0,0,0,0,0,0,-4.8453,-4.8531,-4.9074,-4.9102,-4.878,-4.9098,-4.9153,-4.9277,-4.9554,-4.9594,-4.9421,-4.9424,-4.9821,-4.986,-4.9899,-5.013,-5.0047,-5.0066,-5.0077,-5.0649,-5.0653,-5.0657,0,0,0,0,0,0,-4.8436,-4.85,-4.9056,-4.882,-4.8894,-4.9114,-4.9251,-4.9287,-4.9381,-4.9604,-4.9642,-4.9477,-4.982,-4.9871,-5.0085,-5.0147,-5.0075,-5.0093,-5.0644,-5.065,-5.0655,-5.059,0,0,0,0,0,0,-4.8414,-4.8493,-4.8567,-4.8821,-4.8906,-4.9239,-4.9255,-4.9298,-4.9418,-4.9426,-4.9666,-4.9703,-4.9822,-5.0054,-5.0104,-5.0173,-5.0108,-5.064,-5.0647,-5.0654,-5.0587,-5.0592,-5.0597,0,0,0,0,0,-4.8388,-4.8525,-4.857,-4.8634,-4.9004,-4.9242,-4.929,-4.943,-4.9422,-4.9496,-4.964,-4.9695,-5.0132,-5.0075,-5.0132,-5.0207,-5.0636,-5.0645,-5.0653,-5.0585,-5.0591,-5.0597,0,0,0,0,0,0,-4.8262,-4.856,-4.8613,-4.8838,-4.9015,-4.9266,-4.9363,-4.9432,-4.9609,-4.9608,-4.9768,-4.9821,-5.0022,-5.0136,-5.0067,-5.0397,-5.0387,-5.0407,-5.0315,-5.0323,-5.0328,-5.0294,-5.0125,0,0,0,0,0,-4.8263,-4.8438,-4.8686,-4.886,-4.8948,-4.914,-4.9249,-4.9344,-4.953,-4.9603,-4.9761,-4.9934,-5.0112,-5.0224,-5.0398,-5.0606,-5.0659,-5.0686,-5.069,-5.0693,-5.0708,-5.0828,-5.0842,-5.0685,-5.0685,-5.0685,0,0,-4.8261,-4.8446,-4.8545,-4.884,-4.8988,-4.9161,-4.9201,-4.9381,-4.951,-4.9627,-4.9841,-4.9964,-5.0167,-5.0379,-5.048,-5.048,-5.0764,-5.0704,-5.0705,-5.0718,-5.0838,-5.0852,-5.0865,-5.0691,-5.069,-5.0689,0,0,-4.8348,-4.8506,-4.8671,-4.8821,-4.9049,-4.9178,-4.9217,-4.9461,-4.9549,-4.9768,-4.9861,-5.0013,-5.0314,-5.0457,-5.0568,-5.0717,-5.0774,-5.0769,-5.0792,-5.0907,-5.0919,-5.0931,-5.0984,-5.1001,-5.0783,-5.0783,-5.0783,0,-4.8315,-4.8587,-4.8744,-4.8924,-4.905,-4.9175,-4.934,-4.9476,-4.9744,-4.9827,-4.9826,-5.0211,-5.0355,-5.0604,-5.0641,-5.0727,-5.0774,-5.074,-5.0906,-5.0919,-5.0932,-5.0984,-5.1004,-5.0781,-5.0781,-5.0781,-5.0781,0,-4.8536,-4.8723,-4.8828,-4.9095,-4.9234,-4.9404,-4.9583,-4.9704,-4.9787,-4.9914,-5.0135,-5.0316,-5.0531,-5.0597,-5.0676,-5.0858,-5.0851,-5.0876,-5.0868,-5.0943,-5.0994,-5.1015,-5.0778,-5.0778,-5.0779,-5.078,0,0,-4.855,-4.891,-4.8946,-4.9071,-4.9334,-4.9478,-4.9654,-4.9874,-4.9973,-5.0155,-5.0305,-5.0561,-5.0588,-5.0715,-5.0811,-5.0912,-5.102,-5.0926,-5.0933,-5.0936,-5.123,-5.1209,-5.123,-5.1061,-5.1066,-5.1069,-5.1213,0,-4.8671,-4.8999,-4.9149,-4.9407,-4.9582,-4.9705,-4.9859,-5.0034,-5.0159,-5.032,-5.0455,-5.0635,-5.0657,-5.0735,-5.0841,-5.0984,-5.108,-5.0976,-5.1196,-5.1203,-5.1141,-5.1257,-5.1234,-5.1361,-5.1234,-5.1238,-5.124,0,-4.8854,-4.9047,-4.9326,-4.9574,-4.9652,-4.9788,-5.0004,-5.0158,-5.0359,-5.0442,-5.0588,-5.0683,-5.0868,-5.0851,-5.1107,-5.1033,-5.1132,-5.1217,-5.1225,-5.1248,-5.1224,-5.1282,-5.1405,-5.1423,-5.1273,-5.1271,-5.1268,0,-4.8837,-4.9166,-4.9377,-4.9479,-4.9773,-4.9866,-4.9991,-5.0191,-5.0315,-5.05,-5.0582,-5.0783,-5.0893,-5.1044,-5.119,-5.1164,-5.1432,-5.1425,-5.1502,-5.1498,-5.155,-5.1544,-5.1689,-5.1616,-5.1616,-5.1616,-5.1615,0,-4.8954,-4.9119,-4.9374,-4.9502,-4.9691,-4.9861,-5.0041,-5.0174,-5.0352,-5.0505,-5.0622,-5.0762,-5.0947,-5.1109,-5.1222,-5.1417,-5.1465,-5.1534,-5.1562,-5.1524,-5.1515,-5.1589,-5.1583,-5.1621,-5.162,-5.1619,-5.1618,0,-4.8965,-4.9143,-4.9381,-4.9644,-4.9713,-4.984,-5.0063,-5.019,-5.0324,-5.0517,-5.0572,-5.0778,-5.0976,-5.1138,-5.1393,-5.147,-5.1673,-5.1706,-5.1608,-5.1623,-5.169,-5.1681,-5.1885,-5.1921,-5.1825,-5.1825,-5.1826,0,-4.9027,-4.9159,-4.944,-4.9556,-4.9683,-4.9866,-4.9996,-5.0168,-5.0298,-5.0541,-5.0638,-5.0847,-5.1022,-5.1331,-5.15,-5.1697,-5.1734,-5.1793,-5.1763,-5.1721,-5.1734,-5.1724,-5.1737,-5.1793,-5.1793,-5.1794,-5.1794,0,-4.9119,-4.9203,-4.939,-4.961,-4.9765,-4.9943,-5.0124,-5.021,-5.0414,-5.0553,-5.0763,-5.09,-5.1167,-5.1371,-5.1587,-5.171,-5.1784,-5.1803,-5.1831,-5.1791,-5.1729,-5.1764,-5.1614,-5.1796,-5.1796,-5.1796,-5.1796,-5.1795,-4.9158,-4.9283,-4.9502,-4.9707,-4.9864,-5.0032,-5.0167,-5.0322,-5.0502,-5.0739,-5.0828,-5.1042,-5.1241,-5.1541,-5.1666,-5.1831,-5.1838,-5.1878,-5.1889,-5.1895,-5.1891,-5.1706,-5.1871,-5.1871,-5.1871,-5.1871,-5.1871,0,-4.9256,-4.9406,-4.9594,-4.9849,-5.001,-5.0078,-5.0282,-5.041,-5.06,-5.0784,-5.0959,-5.1199,-5.1399,-5.1587,-5.1795,-5.1891,-5.1931,-5.194,-5.1933,-5.196,-5.1872,-5.1827,-5.1905,-5.1905,-5.1905,-5.1905,-5.1905,-5.1905,-4.9326,-4.9541,-4.9651,-4.9945,-5.0092,-5.031,-5.0421,-5.0576,-5.0725,-5.0991,-5.1162,-5.1287,-5.1472,-5.1696,-5.1881,-5.1931,-5.2001,-5.2001,-5.2058,-5.1971,-5.1966,-5.196,-5.1919,-5.2015,-5.2015,-5.2133,-5.2134,-5.2135]},{"header":{"parameterUnit":"m.s-1","parameterCategory":1,"la1":30.2991,"la2":30.254,"lo1":-89.0895,"lo2":-89.0444,"dy":0.0017,"dx":0.0017,"nx":28,"ny":28,"refTime":"2025-07-22T03:00:00:Z","depth":0,"parameterNumber":3,"parameterNumberName":"V-component_of_WINDS"},"data":[0,0,0,0,0,0,0,0,0,0,0,0,0,0,0,0,0,0,0,0,0,0,0,0,0,0,0,0,0,0,0,0,0,0,0,0,0,0,0,0,0,0,0,0,0,0,0,0,0,0,0,0,0,0,0,0,0,0,2.0303,2.0302,0,2.0176,2.0174,2.0173,2.0102,2.0102,2.0102,2.0102,1.9964,1.9961,1.9958,0,0,0,0,0,0,0,0,0,0,0,0,0,2.0477,2.0474,2.0304,2.0302,2.03,2.0176,2.0174,2.0172,2.0102,2.0102,2.0102,2.0102,1.9966,1.9962,1.9957,0,0,0,0,0,0,0,0,0,0,0,0,0,2.038,2.0473,2.0304,2.0251,2.0245,2.0176,2.0174,2.0172,2.0103,2.0102,2.0102,2.0102,1.9967,1.9962,1.9957,1.993,0,0,1.9941,1.9938,0,0,0,0,0,0,0,0,2.0386,2.0374,2.026,2.0254,2.0247,2.0155,2.0185,2.009,2.0103,2.0156,2.0102,2.0102,2.0028,2.0017,1.9994,1.9923,1.9917,1.994,1.9937,1.9935,1.9933,0,0,0,0,0,0,0,2.0393,2.0379,2.0253,2.0258,2.0251,2.023,2.0216,2.0166,2.0095,2.0152,2.0146,2.0132,2.0024,1.9999,1.999,1.9915,1.994,1.9936,1.9932,1.993,1.9809,1.9809,0,0,0,0,0,0,2.0409,2.0385,2.0257,2.0249,2.0318,2.0227,2.0211,2.0185,2.0095,2.0081,2.0133,2.013,2.0008,1.9996,1.9985,1.9944,1.9935,1.993,1.9927,1.9809,1.9809,1.9809,0,0,0,0,0,0,2.0413,2.0398,2.0262,2.0315,2.0297,2.0224,2.0195,2.0182,2.0157,2.0081,2.0067,2.0121,2.0007,1.9992,1.9943,1.9938,1.9928,1.9923,1.9809,1.9809,1.9809,1.9865,0,0,0,0,0,0,2.0418,2.04,2.0392,2.0316,2.0294,2.0226,2.0195,2.018,2.0149,2.0144,2.0066,2.0053,2.0006,1.9951,1.9938,1.9931,1.9919,1.9809,1.9809,1.9809,1.9863,1.9866,1.9869,0,0,0,0,0,2.0425,2.0413,2.0392,2.0377,2.0283,2.0226,2.0213,2.0161,2.0149,2.0139,2.0088,2.0056,1.9941,1.9947,1.9931,1.9923,1.9809,1.9809,1.9809,1.9861,1.9866,1.9869,0,0,0,0,0,0,2.049,2.0402,2.0378,2.0342,2.0292,2.0214,2.02,2.0168,2.0119,2.0116,2.0051,2.0033,1.9989,1.995,1.9959,1.9888,1.9871,1.9868,1.9916,1.992,1.9923,1.9934,1.9914,0,0,0,0,0,2.05,2.0464,2.0388,2.0363,2.0339,2.0274,2.0247,2.0211,2.0155,2.0134,2.008,2.0025,1.9976,1.9945,1.9896,1.9855,1.9835,1.9841,1.9845,1.9848,1.9846,1.9816,1.9817,1.9808,1.9808,1.9808,0,0,2.0521,2.0468,2.045,2.0375,2.0332,2.0292,2.0257,2.0218,2.0186,2.0127,2.0077,2.0035,1.9969,1.9923,1.99,1.9889,1.9843,1.9847,1.9851,1.9847,1.9816,1.9817,1.9818,1.9808,1.9808,1.9808,0,0,2.0539,2.0497,2.047,2.0427,2.0362,2.0317,2.031,2.0236,2.0206,2.0155,2.0108,2.0068,1.9986,1.994,1.9905,1.9898,1.9865,1.9883,1.9901,1.9873,1.9874,1.9874,1.9869,1.9869,1.9881,1.9881,1.9882,0,2.0573,2.0515,2.0459,2.0422,2.0388,2.0332,2.0301,2.0261,2.0183,2.0159,2.0148,2.0041,1.9992,1.9933,1.993,1.9905,1.9892,1.9893,1.9879,1.9879,1.9878,1.9872,1.9871,1.9884,1.9884,1.9884,1.9883,0,2.0558,2.0518,2.0503,2.0429,2.0393,2.036,2.0295,2.0264,2.0229,2.0184,2.0129,2.0068,2.0004,1.9986,1.9952,1.992,1.9914,1.9892,1.9874,1.9883,1.9876,1.9874,1.9888,1.9887,1.9886,1.9886,0,0,2.0619,2.0511,2.0507,2.0471,2.0392,2.0358,2.0318,2.0256,2.023,2.0175,2.0138,2.0067,2.0044,2.0005,1.9963,1.9939,1.9932,1.9918,1.9915,1.9922,1.9889,1.9907,1.9906,1.9909,1.9908,1.9907,1.9894,0,2.0626,2.0556,2.0502,2.0451,2.041,2.0352,2.0317,2.0262,2.0217,2.0173,2.0121,2.0072,2.0046,2.0022,1.9995,1.994,1.9925,1.9939,1.987,1.9869,1.989,1.9903,1.9923,1.9913,1.9891,1.989,1.989,0,2.0626,2.0574,2.052,2.044,2.0421,2.0391,2.0326,2.0286,2.022,2.0188,2.0142,2.0097,2.0048,2.0032,1.996,1.9971,1.9938,1.9906,1.9904,1.9896,1.9881,1.9895,1.9909,1.9908,1.9886,1.9886,1.9887,0,2.0674,2.059,2.0545,2.0516,2.0423,2.0402,2.0362,2.0296,2.026,2.0202,2.0177,2.0113,2.0079,2.0028,1.9965,1.996,1.9899,1.9878,1.9868,1.987,1.986,1.9862,1.9869,1.9838,1.9838,1.9839,1.9839,0,2.0688,2.0657,2.0566,2.0539,2.0499,2.0434,2.0395,2.0349,2.029,2.0249,2.0193,2.0155,2.0075,2.0026,1.9976,1.9922,1.9907,1.9877,1.9864,1.9883,1.9886,1.9862,1.9861,1.9838,1.9838,1.9838,1.9838,0,2.0738,2.0676,2.0623,2.0537,2.0514,2.0489,2.0414,2.0382,2.0332,2.0281,2.0264,2.0185,2.0123,2.0055,1.9971,1.9937,1.9885,1.9867,1.9909,1.9902,1.9895,1.9896,1.9887,1.9881,1.9855,1.9855,1.9856,0,2.0752,2.0726,2.0636,2.0606,2.0567,2.0519,2.0481,2.0413,2.0375,2.0294,2.0272,2.0206,2.0151,2.0053,1.9986,1.9919,1.9898,1.9899,1.9888,1.9905,1.9897,1.9899,1.9895,1.9904,1.9904,1.9905,1.9905,0,2.0782,2.0751,2.0701,2.0638,2.0595,2.0542,2.0486,2.0463,2.0382,2.0342,2.0279,2.0236,2.0148,2.0082,2.0006,1.9959,1.9917,1.9908,1.9902,1.9922,1.9947,1.9931,1.9918,1.991,1.991,1.9909,1.9909,1.9909,2.0814,2.0787,2.0718,2.0662,2.0613,2.056,2.0526,2.0469,2.0417,2.0342,2.0302,2.0239,2.0165,2.0059,2.0013,1.9959,1.9946,1.9938,1.9935,1.9935,1.9939,1.9954,1.9944,1.9944,1.9944,1.9944,1.9943,0,2.0841,2.0793,2.0742,2.0665,2.0619,2.0584,2.0518,2.0482,2.0427,2.0364,2.0309,2.0233,2.0167,2.0091,2.0019,1.999,1.9968,1.9973,1.9975,1.9964,1.9955,1.9967,1.9992,1.9992,1.9992,1.9992,1.9992,1.9992,2.085,2.0801,2.0761,2.0684,2.0634,2.0574,2.0539,2.0488,2.0436,2.0355,2.03,2.0252,2.0181,2.0102,2.0038,2.0017,1.9992,2.0002,1.9976,1.9969,1.9965,1.9962,1.9973,1.9998,1.9998,1.9989,1.9989,1.9989]}]]